ATLAS 5 CENTAUR DEB, 44651

Orbit data source: Space-Track

ATLAS 5 CENTAUR DEB, 44651 is space debris in HEO originally from a launch on Wed, 17 Oct 2018 UTC launched from the Air Force Eastern Test Range (AFETR). Debris objects in space refer to the collection of defunct objects orbiting the Earth. Examples of debris include non-operational satellites, rocket bodies, and fragments generated from explosions, collisions, or faulty payload assembly.

Loading next visibility...
Identifier
44651, 2018-079M
Orbit
HEO
Country
Flag of USUS
Related business
Flag of USUnited Launch Alliance/Lockheed Martin (US)
Manufacturer
ULA Decatur
Mission
Spacecraft
Bus & Motor
Unknown
Mass
Unknown
Launch date (UTC)
2018-10-17 (8 years ago)
Launch vehicle
Unknown
Launch site
Air Force Eastern Test Range (AFETR)
Object type
Payload
Rocket body
Debris
Shape & HBR
Unknown shape, 1.1 m
Radar Cross Section
Medium (>0.1 m² and <1 m²)

Expand to show TLE details & history
Last TLE update: 3 days ago

TLE from 3 days ago
0 ATLAS 5 CENTAUR DEB
1 44651U 18079M   26170.64380815 -.00000115  00000-0  00000-0 0  9994
2 44651  13.3019  32.7029 4671793 321.9290  12.8118  1.83297158 48125
Epoch: 2026-06-19T15:27Z
TLE epoch observation values (Epoch: 2026-06-19T15:27:05.024Z)
Latitude
0.00012°
Longitude
-106.95314°
Altitude
9,771.317 km
Speed
5.936 km/s
True Right ascension
02h 10m 45s
True Declination
0° 00' 00"
Sunlit
Object was in daylight at epoch
Visualization orbit readout
Latitude
Unknown
Longitude
Unknown
Altitude
Unknown
Speed
Unknown
Apparent Right ascension
Unknown
Apparent Declination
Unknown
Sunlit
N/A
Visualization observer readout
Local Sidereal Time
21:39:52
Azimuth
Unknown
Elevation
Unknown
Doppler factor
Unknown
Orbital elements
Apogee altitude
35,004.056 km
Perigee altitude
8,650.217 km
Semi-major axis
28,205.273 km
Eccentricity
0.46718
Inclination
13.3019°
RAAN
32.7029°
Arg. of periapsis
321.929°
True anomaly
38.04496°
Mean anomaly
12.8118°
Eccentric anomaly
23.47424°
Mean motion
0.45819 °/min
Orbital period
785.7 mins
BSTAR
0
Loading maneuver chart data...
Computing Atmospheric mass density...

Documentation

Showing up to 5 results
|